Location: Serin Observatory
(40.5200°N, 74.4500°W)
Time: 20:17:58
(UTC+00:00)

SL-8 R/B - Visible Passes

Search period start: 04 March 2015 00:00
Search period end: 14 March 2015 00:00
Orbit: 658 x 669 km, 48.4° (Epoch: 03 March)

Date Brightness Start Highest point End Pass type
(mag) Time Alt. Az. Time Alt. Az. Time Alt. Az.
04 Mar 4.7 00:06:12 10° SSW 00:10:17 28° SE 00:11:21 26° ESE visible
04 Mar 5.9 01:47:48 10° WSW 01:49:24 21° WSW 01:49:24 21° WSW visible
05 Mar 3.6 00:36:47 10° SW 00:41:34 65° SE 00:42:13 58° ESE visible
05 Mar 6.6 02:19:46 10° W 02:20:16 13° W 02:20:16 13° W visible
05 Mar 4.6 23:26:30 10° SSW 23:30:42 31° SE 23:34:54 10° ENE visible
06 Mar 4.0 01:08:16 10° WSW 01:12:57 65° NW 01:12:57 65° NW visible
06 Mar 3.7 23:57:12 10° SW 00:02:00 70° SE 00:05:30 18° ENE visible
07 Mar 5.2 01:40:16 10° W 01:43:33 33° NW 01:43:33 33° NW visible
08 Mar 4.1 00:28:45 10° WSW 00:33:33 62° NNW 00:36:00 28° NE visible
08 Mar 6.2 02:12:24 10° WNW 02:14:02 19° NW 02:14:02 19° NW visible
08 Mar 3.8 23:17:37 10° SW 23:22:26 75° SE 23:27:16 10° ENE visible
09 Mar 4.7 01:00:46 10° W 01:05:19 39° NNW 01:06:24 34° NNE visible
09 Mar 6.9 02:44:22 10° WNW 02:44:25 10° WNW 02:44:25 10° WNW visible
09 Mar 4.2 23:49:13 10° WSW 23:54:00 58° NNW 23:58:41 10° NE visible
10 Mar 5.2 01:32:54 10° WNW 01:36:42 31° NNW 01:36:42 31° NNW visible
11 Mar 4.8 00:21:16 10° W 00:25:47 38° NNW 00:28:55 18° NE visible
11 Mar 5.9 02:04:50 10° WNW 02:06:57 22° NW 02:06:57 22° NW visible
12 Mar 5.0 00:53:23 10° WNW 00:57:43 32° N 00:59:07 27° NNE visible
12 Mar 6.6 02:36:29 10° NW 02:37:08 14° NW 02:37:08 14° NW visible
12 Mar 4.9 23:41:45 10° W 23:46:15 37° NNW 23:50:45 10° NE visible
13 Mar 5.0 01:25:17 10° WNW 01:29:17 33° N 01:29:17 33° N visible
